Regional Weather Roundup
Issued by NWS Boston, MA

Current Version | Previous Version | Text Only | Print | Product List | Glossary Off
Versions: 1 2 3 4 5 6 7 8 9 10 11 12 13 14 15 16 17 18 19 20 21 22 23 24 25 26 27 28 29 30 31 32 33 34 35 36 37 38 39 40 41 42 43 44 45 46 47 48 49 50
544 ASUS41 KBOX 220610 RWRBOX REGIONAL WEATHER ROUNDUP NATIONAL WEATHER SERVICE TAUNTON MA 200 AM EDT SAT JUL 22 2017 NOTE: "FAIR" INDICATES FEW OR NO CLOUDS BELOW 12,000 FEET WITH NO SIGNIFICANT WEATHER AND/OR OBSTRUCTIONS TO VISIBILITY. MAZALL-220700- EASTERN MASSACHUSETTS CITY SKY/WX TMP DP RH WIND PRES REMARKS BOSTON PTCLDY 77 59 53 W12 29.83R 6HR MIN TEMP: 77; 6HR MAX TEMP: 87; BEVERLY PTCLDY 73 60 63 W5 29.82S LAWRENCE PTCLDY 75 60 59 SW3 29.84S BEDFORD CLEAR 66 58 75 W5 29.83S BLUE HILL N/A 73 57 57 NW14 29.84F NORWOOD PTCLDY 75 61 61 W8 29.82F MARSHFIELD PTCLDY 72 64 78 VRB5 29.82S PLYMOUTH CLEAR 74 60 61 W8 29.84S TAUNTON CLEAR 69 63 81 CALM 29.83S NEW BEDFORD CLEAR 71 68 90 CALM 29.84R $$ MAZALL-220700- CAPE COD AND THE ISLANDS CITY SKY/WX TMP DP RH WIND PRES REMARKS FALMOUTH CLOUDY 72 70 94 W7 29.84S HYANNIS CLEAR 73 69 87 W7 29.82S CHATHAM PTCLDY 72 71 97 CALM 29.82F PROVINCETOWN PTCLDY 71 67 87 W9 29.82S NANTUCKET CLEAR 72 71 97 W14 29.84S MARTHAS VNYRD PTCLDY 73 68 84 W6 29.84S $$ MAZALL-220700- CENTRAL AND WESTERN MASSACHUSETTS CITY SKY/WX TMP DP RH WIND PRES REMARKS WORCESTER PTCLDY 71 58 63 W10 29.89S 6HR MIN TEMP: 71; 6HR MAX TEMP: 78; FITCHBURG MOCLDY 72 58 61 N5 29.87R ORANGE MOCLDY 63 61 93 NW5 29.88S SPRINGFIELD CLEAR 74 62 65 W10 29.86R WESTFIELD PTCLDY 72 63 73 W8 29.88R NORTH ADAMS MOCLDY 63 60 90 CALM 29.91R PITTSFIELD MOCLDY 67 57 70 SW7 29.93R $$ RIZALL-220700- RHODE ISLAND CITY SKY/WX TMP DP RH WIND PRES REMARKS PROVIDENCE PTCLDY 74 69 85 SW5 29.85S 6HR MIN TEMP: 74; 6HR MAX TEMP: 84; NEWPORT CLOUDY 72 70 93 CALM 29.85S BLOCK ISLAND CLOUDY 72 68 87 W8 29.86S WESTERLY MOCLDY 76 70 82 CALM 29.86S $$ CTZALL-220700- CONNECTICUT CITY SKY/WX TMP DP RH WIND PRES REMARKS BRADLEY INTL PTCLDY 74 63 68 NW10 29.87S 6HR MIN TEMP: 73; 6HR MAX TEMP: 83; HARTFORD PTCLDY 78 65 63 CALM 29.86S BRIDGEPORT MOCLDY 81 70 69 N8 29.85S DANBURY PTCLDY 73 70 90 CALM 29.90R GROTON CLOUDY 76 69 79 CALM 29.85S NEW HAVEN PTCLDY 78 71 79 CALM 29.86S CHESTER FAIR 73 68 83 NW3 29.88S MERIDEN PTCLDY 72 69 90 CALM 29.87S WILLIMANTIC CLEAR 73 70 90 CALM 29.87S OXFORD CLOUDY 73 63 68 NE6 29.90S $$ MEZ002-015-021-024-NHZ003-005-008-011-012-014-VTZ005-008-220700- NORTHERN NEW ENGLAND CITY SKY/WX TMP DP RH WIND PRES REMARKS PORTLAND ME CLOUDY 73 62 68 W5 29.79S 6HR MIN TEMP: 73; 6HR MAX TEMP: 82; BANGOR ME PTCLDY 67 59 75 CALM 29.78R CONCORD NH CLOUDY 72 60 66 W5 29.84S MANCHESTER NH CLOUDY 76 57 51 NW6 29.82S NASHUA NH MOCLDY 68 62 81 CALM 29.84S PORTSMOUTH NH MOCLDY 74 61 63 W7 29.79F JAFFREY NH PTCLDY 66 60 81 S5 29.89S KEENE NH PTCLDY 63 61 93 CALM 29.88R BURLINGTON VT CLOUDY 67 64 90 CALM 29.85R MT. WASHINGTON FOG 48 48 100 NW41G53 N/A VSB 0 $$ NYZ052-076-220700- EASTERN NEW YORK CITY SKY/WX TMP DP RH WIND PRES REMARKS ALBANY MOCLDY 69 59 70 CALM 29.90R 6HR MIN TEMP: 68; 6HR MAX TEMP: 80; NEW YORK CITY MOCLDY 84 72 67 NW12 29.85S 6HR MIN TEMP: 84; 6HR MAX TEMP: 92; $$ ANZALL-220700- MARINE OBSERVATIONS STATION/POSITION TIME TEMP WIND PRES VSBY WAVE AIR SEA DIR/SP/G HT/PER (UTC) (F) (DEG/KT/KT) (MB) (MI) (FT/S) BOSTON BUOY 0550 73 69 270/ 10/ 12 1009.1R 1/14 BUZZARDS BAY 0500 71 320/ 11/ 12 1011.1R NANTUCKET SOUND 0550 70 1009.9S 1/ 3 MASS BAY-STELLWA 0504 71 59 280/ 12/ 12 1008.6R 1/11 ISLE OF SHOALS 0500 75 280/ 18/ 18 1008.5R S OF BLOCK IS 0555 71 N/A 3/ 6 $$ ......................KEY......................... SKY/WX - SKY CONDITION/PRESENT WEATHER TMP - TEMPERATURE IN FAHRENHEIT DWPT - DEWPOINT IN FAHRENHEIT RH - RELATIVE HUMIDITY IN PERCENT WIND - DIRECTION AND SPEED IN MPH PRES - MEAN SEA LEVEL PRESSURE IN INCHES OF HG WCI - WIND CHILL INDEX VSB - VISIBILITY IN MILES HX - HEAT INDEX TC - TEMPERATURE IN CELSIUS VRB - VARIABLE WIND DIRECTION N/A - NOT AVAILABLE

USA.gov is the U.S. government's official web portal to all federal, state and local government web resources and services.